[[{"header":{"parameterUnit":"m.s-1","parameterCategory":2,"la1":30.2991,"la2":30.254,"lo1":-89.0895,"lo2":-89.0444,"dy":0.0017,"dx":0.0017,"nx":28,"ny":28,"refTime":"2024-12-31T09:00:00:Z","depth":"0","parameterNumber":2,"parameterNumberName":"U-component_of_CURRENTS"},"data":[0,0,0,0,0,0,0,0,0,0,0,0,0,0,0,0,0,0,0,0,0,0,0,0,0,0,0,0,0,0,0,0,0,0,0,0,0,0,0,0,0,0,0,0,0,0,0,0,0,0,0,0,0,0,0,0,0,0,0.229,0.229,0,0.2277,0.2277,0.2276,0.2264,0.2264,0.2264,0.2264,0.2248,0.2247,0.2247,0,0,0,0,0,0,0,0,0,0,0,0,0,0.2299,0.2298,0.229,0.229,0.229,0.2277,0.2277,0.2276,0.2264,0.2264,0.2264,0.2264,0.2248,0.2248,0.2247,0,0,0,0,0,0,0,0,0,0,0,0,0,0.2289,0.2298,0.229,0.2284,0.2283,0.2277,0.2277,0.2276,0.2264,0.2264,0.2264,0.2264,0.2248,0.2248,0.2247,0.2241,0,0,0.2245,0.2244,0,0,0,0,0,0,0,0,0.229,0.2288,0.2285,0.2284,0.2284,0.2274,0.2274,0.2265,0.2264,0.2269,0.2264,0.2264,0.2258,0.2256,0.225,0.224,0.2239,0.2245,0.2244,0.2244,0.2244,0,0,0,0,0,0,0,0.229,0.2289,0.2282,0.2285,0.2284,0.228,0.2279,0.2272,0.2261,0.2268,0.2268,0.227,0.2257,0.2251,0.225,0.2239,0.2245,0.2244,0.2244,0.2243,0.2242,0.2242,0,0,0,0,0,0,0.2297,0.2289,0.2283,0.2282,0.229,0.228,0.2279,0.2275,0.2261,0.226,0.227,0.227,0.2252,0.2251,0.2249,0.2272,0.2244,0.2243,0.2243,0.2241,0.2242,0.2242,0,0,0,0,0,0,0.2297,0.2296,0.2283,0.2288,0.2286,0.228,0.2277,0.2275,0.2274,0.2263,0.2261,0.2272,0.2252,0.225,0.2249,0.227,0.2243,0.2242,0.2241,0.2242,0.2242,0.2297,0,0,0,0,0,0,0.2297,0.2296,0.2296,0.2288,0.2286,0.2285,0.2277,0.2275,0.2276,0.2276,0.2264,0.2262,0.2252,0.225,0.2248,0.2269,0.2242,0.2241,0.2241,0.2242,0.2295,0.23,0.2304,0,0,0,0,0,0.2297,0.2297,0.2296,0.2295,0.2286,0.2286,0.2284,0.2279,0.2277,0.2278,0.227,0.2263,0.2253,0.2249,0.2247,0.2268,0.224,0.2241,0.2242,0.2293,0.2299,0.2304,0,0,0,0,0,0,0.2295,0.2296,0.2294,0.2293,0.2293,0.2285,0.2286,0.2283,0.2277,0.2278,0.2265,0.2263,0.2274,0.2257,0.2253,0.2268,0.2247,0.2247,0.2286,0.2291,0.2296,0.2305,0.2241,0,0,0,0,0,0.2297,0.23,0.2298,0.2297,0.2299,0.2294,0.2294,0.2292,0.2287,0.2284,0.2276,0.227,0.2275,0.2272,0.2269,0.2271,0.2273,0.2283,0.2288,0.2291,0.2297,0.2325,0.2333,0.2245,0.2245,0.2245,0,0,0.2294,0.2297,0.2296,0.2298,0.2296,0.2303,0.2293,0.2297,0.2304,0.2284,0.2288,0.2287,0.2279,0.2289,0.2292,0.2278,0.2316,0.2293,0.2296,0.2299,0.2327,0.2336,0.2344,0.2246,0.2246,0.2246,0,0,0.2293,0.2294,0.2298,0.2304,0.2311,0.2312,0.2316,0.2313,0.2315,0.2318,0.2314,0.2326,0.2314,0.2322,0.2324,0.2348,0.2343,0.2344,0.2371,0.2399,0.2407,0.2414,0.2425,0.2432,0.2342,0.2342,0.2342,0,0.229,0.2293,0.2299,0.2308,0.2314,0.2318,0.2325,0.2331,0.2328,0.2337,0.2326,0.2341,0.2335,0.2363,0.2371,0.2361,0.2367,0.2355,0.2407,0.2414,0.242,0.2429,0.2437,0.2344,0.2344,0.2344,0.2344,0,0.2293,0.2299,0.2303,0.2319,0.2328,0.2334,0.2348,0.2358,0.2362,0.237,0.2396,0.2392,0.2402,0.2406,0.2395,0.2439,0.2425,0.2416,0.2398,0.2433,0.244,0.2447,0.2348,0.2347,0.2347,0.2346,0,0,0.227,0.2299,0.23,0.2306,0.2333,0.2336,0.2365,0.2386,0.2411,0.2417,0.2446,0.2461,0.2467,0.2468,0.2465,0.2486,0.2534,0.2469,0.2469,0.2488,0.2588,0.2542,0.2545,0.2537,0.2539,0.254,0.2574,0,0.2266,0.2281,0.2302,0.2316,0.2322,0.2348,0.2375,0.2402,0.2428,0.2459,0.2479,0.2504,0.2489,0.25,0.2523,0.2536,0.2555,0.2525,0.2544,0.2544,0.2507,0.2553,0.2467,0.2487,0.2581,0.2582,0.2583,0,0.2256,0.2269,0.2281,0.2312,0.2319,0.2335,0.238,0.2407,0.2468,0.2493,0.2534,0.2549,0.259,0.2567,0.2615,0.2597,0.2597,0.26,0.2602,0.2546,0.2512,0.2467,0.2496,0.2452,0.2594,0.2593,0.2592,0,0.2221,0.225,0.2256,0.2266,0.2308,0.2322,0.2351,0.2413,0.2448,0.2519,0.2551,0.2604,0.2629,0.2651,0.2658,0.2642,0.2705,0.2682,0.264,0.2636,0.2558,0.2545,0.2553,0.2715,0.2715,0.2715,0.2715,0,0.2199,0.2202,0.2239,0.2239,0.2258,0.23,0.2336,0.2383,0.2461,0.2504,0.2563,0.2602,0.2652,0.2687,0.2686,0.269,0.273,0.2657,0.265,0.2573,0.2561,0.2514,0.2494,0.2716,0.2716,0.2716,0.2715,0,0.2153,0.2177,0.2184,0.2225,0.2238,0.2252,0.2321,0.2355,0.2436,0.2496,0.2519,0.2618,0.2665,0.2701,0.2743,0.2719,0.2656,0.2715,0.2613,0.2593,0.2493,0.2479,0.2376,0.2295,0.2673,0.2672,0.2672,0,0.2128,0.2128,0.2162,0.2168,0.2184,0.2215,0.2241,0.233,0.2372,0.2491,0.2513,0.2597,0.2642,0.2702,0.2692,0.2696,0.2621,0.2598,0.2549,0.2488,0.2468,0.237,0.2302,0.2467,0.2465,0.2463,0.2461,0,0.2084,0.2098,0.2107,0.212,0.2137,0.216,0.2203,0.2234,0.2334,0.2392,0.2471,0.2525,0.2602,0.2587,0.2604,0.2588,0.2479,0.2557,0.2529,0.2339,0.2199,0.2116,0.2438,0.2445,0.2446,0.2447,0.2448,0.2449,0.2049,0.2045,0.2058,0.2064,0.208,0.2087,0.2083,0.2138,0.2187,0.225,0.2362,0.2415,0.2471,0.2494,0.2466,0.238,0.2358,0.2305,0.2303,0.2217,0.2102,0.2379,0.2355,0.2357,0.2358,0.2358,0.2359,0,0.1996,0.1995,0.2,0.1994,0.198,0.2016,0.204,0.2025,0.2034,0.2137,0.2194,0.2252,0.2253,0.2283,0.2243,0.2154,0.2041,0.2091,0.1949,0.1901,0.2189,0.2146,0.2033,0.2033,0.2033,0.2033,0.2033,0.2034,0.1967,0.1943,0.1942,0.1891,0.1887,0.1837,0.1832,0.1828,0.1879,0.1907,0.1949,0.2018,0.2137,0.2164,0.2084,0.2017,0.1855,0.1764,0.1752,0.1994,0.2013,0.2032,0.1988,0.1844,0.1844,0.1374,0.137,0.1368]},{"header":{"parameterUnit":"m.s-1","parameterCategory":2,"la1":30.2991,"la2":30.254,"lo1":-89.0895,"lo2":-89.0444,"dy":0.0017,"dx":0.0017,"nx":28,"ny":28,"refTime":"2024-12-31T09:00:00:Z","depth":"0","parameterNumber":3,"parameterNumberName":"V-component_of_CURRENTS"},"data":[0,0,0,0,0,0,0,0,0,0,0,0,0,0,0,0,0,0,0,0,0,0,0,0,0,0,0,0,0,0,0,0,0,0,0,0,0,0,0,0,0,0,0,0,0,0,0,0,0,0,0,0,0,0,0,0,0,0,-0.0103,-0.0103,0,-0.0143,-0.0144,-0.0145,-0.0167,-0.0167,-0.0167,-0.0167,-0.0216,-0.0217,-0.0218,0,0,0,0,0,0,0,0,0,0,0,0,0,-0.0089,-0.0089,-0.0103,-0.0103,-0.0104,-0.0143,-0.0144,-0.0145,-0.0167,-0.0167,-0.0167,-0.0167,-0.0215,-0.0217,-0.0219,0,0,0,0,0,0,0,0,0,0,0,0,0,-0.011,-0.0089,-0.0103,-0.0118,-0.012,-0.0143,-0.0144,-0.0145,-0.0167,-0.0167,-0.0167,-0.0167,-0.0215,-0.0217,-0.0219,-0.0234,0,0,-0.0225,-0.0226,0,0,0,0,0,0,0,0,-0.0109,-0.0111,-0.0116,-0.0117,-0.0119,-0.0149,-0.0157,-0.0174,-0.0167,-0.0151,-0.0167,-0.0167,-0.0193,-0.0197,-0.0207,-0.0236,-0.0238,-0.0225,-0.0226,-0.0227,-0.0228,0,0,0,0,0,0,0,-0.0107,-0.0109,-0.012,-0.0116,-0.0118,-0.0139,-0.0141,-0.0161,-0.0174,-0.0152,-0.0154,-0.0156,-0.0194,-0.0205,-0.0208,-0.0239,-0.0225,-0.0227,-0.0228,-0.0229,-0.0265,-0.0265,0,0,0,0,0,0,-0.0097,-0.0108,-0.0119,-0.0121,-0.0112,-0.0139,-0.0142,-0.0141,-0.0173,-0.0178,-0.0156,-0.0157,-0.0202,-0.0206,-0.021,-0.0208,-0.0227,-0.0229,-0.023,-0.0266,-0.0265,-0.0265,0,0,0,0,0,0,-0.0096,-0.0097,-0.0117,-0.0115,-0.0118,-0.0138,-0.0138,-0.0142,-0.0148,-0.0176,-0.018,-0.0158,-0.0202,-0.0207,-0.022,-0.0211,-0.023,-0.0232,-0.0266,-0.0265,-0.0265,-0.0217,0,0,0,0,0,0,-0.0096,-0.0097,-0.0095,-0.0114,-0.0118,-0.0122,-0.0138,-0.0142,-0.0149,-0.0151,-0.0179,-0.0183,-0.0202,-0.0216,-0.0222,-0.0214,-0.0234,-0.0266,-0.0266,-0.0265,-0.0219,-0.0215,-0.0212,0,0,0,0,0,-0.0095,-0.009,-0.0095,-0.0096,-0.0114,-0.0121,-0.0125,-0.0141,-0.0149,-0.0148,-0.0166,-0.0182,-0.0217,-0.0218,-0.0224,-0.0217,-0.0266,-0.0266,-0.0265,-0.0221,-0.0216,-0.0212,0,0,0,0,0,0,-0.0082,-0.0092,-0.0098,-0.0096,-0.0104,-0.0124,-0.0127,-0.0137,-0.0152,-0.0155,-0.0181,-0.0187,-0.0196,-0.0213,-0.0213,-0.0226,-0.0244,-0.0244,-0.0208,-0.0204,-0.02,-0.018,-0.0235,0,0,0,0,0,-0.0078,-0.0077,-0.0089,-0.0086,-0.0089,-0.0107,-0.0114,-0.0123,-0.0138,-0.0144,-0.0163,-0.0183,-0.0199,-0.0206,-0.0225,-0.0232,-0.0245,-0.0231,-0.0227,-0.0224,-0.0212,-0.0226,-0.0222,-0.0263,-0.0263,-0.0263,0,0,-0.0072,-0.0078,-0.0077,-0.0084,-0.0093,-0.0086,-0.0111,-0.0115,-0.0109,-0.0147,-0.0147,-0.0174,-0.0199,-0.0206,-0.0211,-0.0218,-0.022,-0.0223,-0.022,-0.021,-0.0224,-0.022,-0.0217,-0.0263,-0.0263,-0.0263,0,0,-0.0053,-0.0064,-0.0052,-0.0056,-0.0064,-0.0073,-0.007,-0.0086,-0.0094,-0.01,-0.0125,-0.0141,-0.0168,-0.018,-0.0191,-0.0179,-0.0203,-0.0189,-0.0151,-0.0164,-0.016,-0.0157,-0.017,-0.0169,-0.0183,-0.0183,-0.0183,0,-0.0043,-0.003,-0.005,-0.0038,-0.0034,-0.0061,-0.0042,-0.0054,-0.0072,-0.0071,-0.0092,-0.0125,-0.0152,-0.0152,-0.0151,-0.0169,-0.0182,-0.0164,-0.0158,-0.0155,-0.0153,-0.0167,-0.0166,-0.0181,-0.0181,-0.0181,-0.0182,0,-0.0012,-0.0001,0.0005,0.0015,0.0014,0.0023,0.001,0.0005,-0.0011,-0.0018,-0.0028,-0.0069,-0.0084,-0.01,-0.0124,-0.0119,-0.0135,-0.0154,-0.0166,-0.0146,-0.0162,-0.0162,-0.0178,-0.0178,-0.0179,-0.018,0,0,0.002,0.0027,0.0032,0.0048,0.0044,0.0052,0.0057,0.0063,0.008,0.0045,0.0062,0.0019,-0.0004,-0.0018,-0.0053,-0.0068,-0.0072,-0.01,-0.0102,-0.0107,-0.0099,-0.011,-0.0111,-0.0091,-0.0091,-0.009,-0.0118,0,0.0057,0.0093,0.0085,0.0124,0.0145,0.0123,0.0136,0.0133,0.0126,0.0132,0.0086,0.0083,0.0029,0.002,-0.0003,-0.0053,-0.0069,-0.0063,-0.0123,-0.0124,-0.0131,-0.011,-0.0101,-0.0124,-0.0118,-0.0118,-0.0118,0,0.0099,0.0118,0.0161,0.0187,0.0195,0.0209,0.0231,0.0242,0.0237,0.023,0.0213,0.0176,0.0146,0.0093,0.0026,0.0032,-0.0026,-0.007,-0.0073,-0.0096,-0.0134,-0.0143,-0.0124,-0.0232,-0.0118,-0.0118,-0.0118,0,0.0143,0.0177,0.0214,0.0222,0.0241,0.0254,0.0266,0.0273,0.0301,0.0296,0.0309,0.0262,0.0244,0.0165,0.0062,0.0047,-0.0014,-0.0047,-0.011,-0.0112,-0.0121,-0.0124,-0.0206,-0.009,-0.009,-0.009,-0.009,0,0.0191,0.0223,0.0236,0.0257,0.0309,0.0302,0.0359,0.0361,0.0384,0.0431,0.0365,0.0385,0.0262,0.0204,0.0098,0.0001,0.0013,-0.0093,-0.0115,-0.0105,-0.0106,-0.0216,-0.029,-0.0091,-0.0091,-0.0091,-0.0091,0,0.0236,0.0242,0.029,0.0317,0.0331,0.0369,0.0424,0.0468,0.0473,0.0527,0.0526,0.0488,0.0415,0.0282,0.0163,0.0062,-0.0112,-0.0084,-0.0065,-0.0084,-0.0242,-0.0314,-0.0423,-0.0496,-0.0149,-0.015,-0.015,0,0.0261,0.0288,0.0337,0.0373,0.0388,0.0443,0.0487,0.0513,0.0568,0.0596,0.063,0.0573,0.0555,0.0373,0.0184,0.0008,-0.0119,-0.0104,-0.0133,-0.024,-0.0336,-0.0389,-0.0447,-0.013,-0.0131,-0.0131,-0.0131,0,0.0314,0.0327,0.0367,0.0438,0.0489,0.0558,0.0621,0.0679,0.0713,0.0757,0.0803,0.0787,0.0611,0.0452,0.0202,0.0068,-0.0192,-0.0111,-0.0226,-0.0327,-0.0385,-0.0468,-0.0129,-0.0132,-0.0131,-0.0131,-0.0131,-0.0131,0.0355,0.0391,0.044,0.0511,0.0574,0.0658,0.0724,0.08,0.0891,0.0952,0.0935,0.0936,0.0684,0.0356,0.0162,-0.0183,-0.0206,-0.0285,-0.0363,-0.0404,-0.0479,-0.0139,-0.0165,-0.0165,-0.0165,-0.0165,-0.0166,0,0.0405,0.0443,0.051,0.0591,0.0667,0.0691,0.0804,0.0871,0.0982,0.104,0.1075,0.0948,0.0657,0.0327,-0.0133,-0.0378,-0.0489,-0.0525,-0.0602,-0.065,-0.0343,-0.0346,-0.0407,-0.0407,-0.0406,-0.0406,-0.0406,-0.0406,0.0431,0.0499,0.0528,0.0652,0.0711,0.0814,0.0879,0.0978,0.1048,0.1104,0.1095,0.1052,0.0774,0.004,-0.0488,-0.0621,-0.083,-0.0863,-0.0979,-0.0769,-0.0753,-0.0737,-0.0756,-0.0902,-0.0902,-0.1247,-0.125,-0.1253]}],[{"header":{"parameterUnit":"m.s-1","parameterCategory":2,"la1":30.2991,"la2":30.254,"lo1":-89.0895,"lo2":-89.0444,"dy":0.0017,"dx":0.0017,"nx":28,"ny":28,"refTime":"2024-12-31T09:00:00:Z","depth":"2","parameterNumber":2,"parameterNumberName":"U-component_of_CURRENTS"},"data":[0,0,0,0,0,0,0,0,0,0,0,0,0,0,0,0,0,0,0,0,0,0,0,0,0,0,0,0,0,0,0,0,0,0,0,0,0,0,0,0,0,0,0,0,0,0,0,0,0,0,0,0,0,0,0,0,0,0,0.2189,0.2189,0,0.2183,0.2182,0.2182,0.218,0.218,0.218,0.218,0.2177,0.2176,0.2176,0,0,0,0,0,0,0,0,0,0,0,0,0,0.2195,0.2194,0.2189,0.2189,0.2189,0.2183,0.2182,0.2182,0.218,0.218,0.218,0.218,0.2177,0.2177,0.2176,0,0,0,0,0,0,0,0,0,0,0,0,0,0.2189,0.2194,0.2189,0.2188,0.2188,0.2183,0.2182,0.2182,0.2179,0.218,0.218,0.218,0.2177,0.2177,0.2176,0.2168,0,0,0.2175,0.2175,0,0,0,0,0,0,0,0,0.2189,0.2188,0.2188,0.2188,0.2188,0.2184,0.2183,0.2178,0.2179,0.2181,0.218,0.218,0.218,0.218,0.2175,0.2168,0.2168,0.2175,0.2175,0.2175,0.2174,0,0,0,0,0,0,0,0.219,0.2189,0.2185,0.2188,0.2188,0.2187,0.2186,0.2182,0.2178,0.2181,0.2181,0.2183,0.218,0.2176,0.2175,0.2168,0.2175,0.2175,0.2174,0.2174,0.2185,0.2186,0,0,0,0,0,0,0.2194,0.2189,0.2185,0.2185,0.2192,0.2187,0.2186,0.2183,0.2178,0.2178,0.2183,0.2183,0.2176,0.2176,0.2175,0.2206,0.2175,0.2174,0.2174,0.2185,0.2185,0.2186,0,0,0,0,0,0,0.2194,0.2193,0.2185,0.2188,0.2188,0.2187,0.2184,0.2183,0.219,0.218,0.2179,0.2191,0.2176,0.2176,0.2181,0.2204,0.2174,0.2174,0.2184,0.2185,0.2186,0.2241,0,0,0,0,0,0,0.2194,0.2193,0.2197,0.2189,0.2188,0.219,0.2184,0.2183,0.2191,0.2191,0.2187,0.2186,0.2176,0.2181,0.218,0.2203,0.2173,0.2184,0.2185,0.2186,0.2238,0.2243,0.2248,0,0,0,0,0,0.2194,0.2196,0.2197,0.2197,0.2191,0.219,0.219,0.2189,0.2191,0.2195,0.2193,0.2187,0.2187,0.2181,0.218,0.2203,0.2183,0.2184,0.2185,0.2236,0.2242,0.2248,0,0,0,0,0,0,0.2195,0.2195,0.2197,0.2197,0.2199,0.2191,0.2196,0.2196,0.2197,0.2201,0.2191,0.219,0.2208,0.2192,0.2186,0.2208,0.2185,0.2186,0.2224,0.223,0.2234,0.2243,0.2173,0,0,0,0,0,0.2198,0.2202,0.2201,0.2202,0.2206,0.2204,0.2205,0.2206,0.2205,0.2206,0.2203,0.2201,0.2209,0.2209,0.2209,0.2216,0.2216,0.2229,0.2234,0.2238,0.2244,0.227,0.2278,0.219,0.219,0.219,0,0,0.2197,0.22,0.2201,0.2204,0.2205,0.2213,0.2205,0.2212,0.2222,0.2205,0.2218,0.2221,0.2215,0.2229,0.2235,0.222,0.2262,0.224,0.2243,0.2246,0.2272,0.2281,0.2288,0.2191,0.2191,0.219,0,0,0.2199,0.2203,0.2208,0.2214,0.2224,0.2225,0.2232,0.2232,0.2237,0.2247,0.2246,0.2262,0.2258,0.2266,0.2268,0.2297,0.2291,0.2296,0.2323,0.2349,0.2357,0.2363,0.2372,0.2379,0.2293,0.2293,0.2293,0,0.2199,0.2204,0.221,0.222,0.2227,0.2234,0.2243,0.2251,0.2254,0.2265,0.2258,0.2282,0.2279,0.2309,0.2319,0.231,0.2316,0.2305,0.2357,0.2363,0.237,0.2377,0.2384,0.2296,0.2295,0.2295,0.2295,0,0.2204,0.2213,0.2218,0.2235,0.2245,0.2253,0.2267,0.2282,0.2292,0.2302,0.2334,0.2334,0.2349,0.2354,0.2345,0.2389,0.2376,0.2366,0.2346,0.2382,0.2387,0.2393,0.23,0.2299,0.2298,0.2297,0,0,0.2187,0.2215,0.2217,0.2226,0.2253,0.2257,0.2288,0.2311,0.2338,0.2352,0.2384,0.2404,0.2413,0.2416,0.2415,0.2435,0.2482,0.242,0.242,0.2435,0.2532,0.2483,0.2485,0.2486,0.2487,0.2488,0.2517,0,0.2187,0.2203,0.2222,0.224,0.2248,0.2274,0.2301,0.2331,0.2359,0.2394,0.2416,0.2446,0.2435,0.2449,0.2472,0.2485,0.2503,0.2475,0.2489,0.2489,0.2447,0.2492,0.2275,0.2279,0.2523,0.2524,0.2525,0,0.218,0.2193,0.2208,0.224,0.2248,0.2266,0.2313,0.2341,0.2403,0.243,0.2474,0.2491,0.2533,0.2513,0.2559,0.2544,0.2543,0.2546,0.2547,0.2487,0.2452,0.2282,0.2282,0.2536,0.2535,0.2534,0.2534,0,0.2149,0.218,0.2189,0.2199,0.2242,0.2259,0.2289,0.235,0.2386,0.2459,0.2492,0.2544,0.2572,0.2592,0.26,0.2586,0.2644,0.2622,0.2575,0.2571,0.2381,0.2357,0.2653,0.2653,0.2653,0.2652,0.2652,0,0.213,0.2137,0.2175,0.2178,0.22,0.2241,0.2282,0.2328,0.2405,0.2447,0.2507,0.2544,0.2595,0.2627,0.2626,0.2626,0.2665,0.2591,0.2583,0.2392,0.2371,0.2586,0.2578,0.2653,0.2653,0.2653,0.2653,0,0.209,0.2114,0.2126,0.2169,0.2182,0.22,0.227,0.2304,0.2385,0.2444,0.2468,0.2561,0.2604,0.2638,0.2677,0.2652,0.2657,0.2641,0.241,0.2374,0.2558,0.2552,0.2596,0.2594,0.2593,0.2592,0.2591,0,0.2068,0.207,0.2108,0.2116,0.2133,0.2169,0.2195,0.2283,0.2323,0.2438,0.2458,0.2538,0.2573,0.2625,0.2593,0.2587,0.2638,0.2379,0.2315,0.2569,0.2556,0.2552,0.2548,0.2078,0.2073,0.2069,0.2066,0,0.2028,0.2045,0.2056,0.2072,0.2092,0.2116,0.216,0.2188,0.2285,0.2338,0.2408,0.2454,0.2503,0.2406,0.2409,0.2375,0.2366,0.2298,0.2625,0.2136,0.2086,0.2072,0.2084,0.203,0.2034,0.2036,0.2038,0.204,0.1999,0.1996,0.2011,0.202,0.2038,0.2044,0.2041,0.2085,0.2128,0.2162,0.2273,0.2252,0.2264,0.2162,0.2089,0.2025,0.2196,0.2077,0.2087,0.2102,0.2046,0.1999,0.1915,0.1918,0.192,0.1922,0.1924,0,0.1947,0.195,0.1957,0.1954,0.1937,0.1978,0.1998,0.1962,0.1955,0.1997,0.2026,0.1846,0.178,0.1789,0.1638,0.1642,0.1607,0.1568,0.1489,0.1527,0.156,0.1474,0.1192,0.119,0.1187,0.1185,0,0,0.1921,0.1898,0.1895,0.1845,0.1845,0.1788,0.1781,0.1735,0.1727,0.1662,0.1618,0.1713,0.1756,0.1452,0.1409,0.1273,0.1393,0.1224,0.1814,0.1762,0.1792,0.1861,0.1774,0,0,0,0,0]},{"header":{"parameterUnit":"m.s-1","parameterCategory":2,"la1":30.2991,"la2":30.254,"lo1":-89.0895,"lo2":-89.0444,"dy":0.0017,"dx":0.0017,"nx":28,"ny":28,"refTime":"2024-12-31T09:00:00:Z","depth":"2","parameterNumber":3,"parameterNumberName":"V-component_of_CURRENTS"},"data":[0,0,0,0,0,0,0,0,0,0,0,0,0,0,0,0,0,0,0,0,0,0,0,0,0,0,0,0,0,0,0,0,0,0,0,0,0,0,0,0,0,0,0,0,0,0,0,0,0,0,0,0,0,0,0,0,0,0,0.0071,0.0071,0,0.0037,0.0036,0.0036,0.001,0.001,0.001,0.001,-0.0039,-0.0041,-0.0042,0,0,0,0,0,0,0,0,0,0,0,0,0,0.0075,0.0076,0.0071,0.0071,0.0071,0.0037,0.0036,0.0035,0.001,0.001,0.001,0.001,-0.0039,-0.004,-0.0042,0,0,0,0,0,0,0,0,0,0,0,0,0,0.0059,0.0076,0.0072,0.0055,0.0053,0.0037,0.0036,0.0035,0.001,0.001,0.001,0.001,-0.0038,-0.004,-0.0042,-0.005,0,0,-0.0048,-0.0048,0,0,0,0,0,0,0,0,0.006,0.0059,0.0058,0.0056,0.0054,0.0029,0.0019,0.0006,0.001,0.0025,0.001,0.001,-0.0017,-0.0021,-0.0028,-0.0053,-0.0055,-0.0048,-0.0049,-0.005,-0.005,0,0,0,0,0,0,0,0.0062,0.006,0.0056,0.0057,0.0055,0.0035,0.0033,0.0017,0.0004,0.0024,0.0022,0.0021,-0.0018,-0.0026,-0.003,-0.0055,-0.0048,-0.0049,-0.005,-0.0051,-0.0085,-0.0085,0,0,0,0,0,0,0.0071,0.0062,0.0058,0.0056,0.0058,0.0036,0.0033,0.0036,0.0005,0.0,0.0021,0.002,-0.0023,-0.0028,-0.0032,-0.0035,-0.005,-0.0051,-0.0052,-0.0085,-0.0085,-0.0085,0,0,0,0,0,0,0.0071,0.0071,0.0059,0.0058,0.0056,0.0036,0.0039,0.0035,0.0025,0.0003,-0.0003,0.0014,-0.0024,-0.0029,-0.0043,-0.0037,-0.0052,-0.0054,-0.0085,-0.0085,-0.0085,-0.0047,0,0,0,0,0,0,0.0071,0.0071,0.0072,0.0059,0.0056,0.0054,0.004,0.0035,0.0025,0.0023,-0.0005,-0.0009,-0.0024,-0.004,-0.0045,-0.004,-0.0055,-0.0086,-0.0085,-0.0085,-0.0048,-0.0045,-0.0042,0,0,0,0,0,0.0072,0.0078,0.0072,0.0072,0.006,0.0055,0.0051,0.0036,0.0025,0.0024,0.0006,-0.0009,-0.0041,-0.0042,-0.0047,-0.0043,-0.0086,-0.0085,-0.0085,-0.0049,-0.0046,-0.0042,0,0,0,0,0,0,0.008,0.0075,0.0069,0.0074,0.0066,0.0051,0.0047,0.0036,0.002,0.0015,-0.0008,-0.0013,-0.0025,-0.0039,-0.0039,-0.0051,-0.0066,-0.0066,-0.0037,-0.0033,-0.003,-0.0013,-0.0057,0,0,0,0,0,0.0083,0.0086,0.0078,0.0081,0.0078,0.0062,0.0055,0.0046,0.0032,0.0024,0.0006,-0.0013,-0.0027,-0.0034,-0.0051,-0.0057,-0.007,-0.0058,-0.0055,-0.0052,-0.0042,-0.0056,-0.0053,-0.0083,-0.0083,-0.0083,0,0,0.0087,0.0084,0.0086,0.0082,0.0074,0.0081,0.0057,0.0052,0.0057,0.0022,0.0017,-0.0007,-0.0028,-0.0034,-0.004,-0.0045,-0.0052,-0.0052,-0.0049,-0.0041,-0.0055,-0.0052,-0.005,-0.0083,-0.0083,-0.0083,0,0,0.0103,0.0094,0.0106,0.0103,0.0095,0.0089,0.0089,0.0074,0.0065,0.0057,0.0035,0.0018,-0.0006,-0.0015,-0.0024,-0.0015,-0.0039,-0.0025,0.0006,-0.0007,-0.0005,-0.0003,-0.0019,-0.0019,-0.002,-0.002,-0.002,0,0.0108,0.0124,0.0107,0.0118,0.0122,0.0097,0.0113,0.0102,0.0084,0.0084,0.0062,0.0031,0.0006,0.0009,0.0008,-0.0008,-0.0022,-0.0004,-0.0003,-0.0001,0.0001,-0.0017,-0.0017,-0.0018,-0.0019,-0.0019,-0.0019,0,0.0137,0.0147,0.0153,0.0163,0.0163,0.0171,0.016,0.0152,0.0135,0.0128,0.0116,0.0079,0.0065,0.005,0.003,0.0031,0.0015,0.0,-0.0009,0.0006,-0.0014,-0.0015,-0.0016,-0.0016,-0.0017,-0.0017,0,0,0.0161,0.0172,0.0176,0.0191,0.0189,0.0196,0.02,0.0206,0.022,0.0184,0.0197,0.0158,0.0134,0.0123,0.0091,0.0075,0.0063,0.0044,0.0042,0.0032,0.003,0.0016,0.0014,0.0047,0.0047,0.0047,0.001,0,0.0192,0.0227,0.0223,0.0258,0.0277,0.0258,0.0271,0.0269,0.026,0.0263,0.022,0.0216,0.0164,0.0155,0.013,0.0084,0.0064,0.0075,0.0013,0.0012,0.0001,0.0013,0.0037,0.0006,0.0009,0.0009,0.0009,0,0.0229,0.0249,0.0287,0.0315,0.0322,0.0335,0.0355,0.0366,0.036,0.0352,0.0334,0.0298,0.0267,0.0217,0.0149,0.0157,0.0098,0.0056,0.0053,0.0029,-0.0003,-0.0008,0.0004,0.0008,0.0008,0.0008,0.0008,0,0.0265,0.0298,0.0332,0.034,0.0362,0.0372,0.0385,0.0392,0.0419,0.0411,0.0421,0.0374,0.0355,0.0277,0.0176,0.0163,0.0097,0.007,0.0003,0.0001,0.0005,0.0003,0.0023,0.0023,0.0023,0.0023,0.0023,0,0.0307,0.0335,0.0351,0.0369,0.0418,0.0414,0.0467,0.0469,0.049,0.0534,0.0471,0.0487,0.0368,0.0309,0.0207,0.0107,0.012,0.0015,-0.0005,0.0018,0.0018,0.0006,0.0005,0.0022,0.0022,0.0022,0.0022,0,0.0343,0.0351,0.0395,0.0423,0.0436,0.0471,0.0526,0.0568,0.0571,0.0622,0.0619,0.058,0.0504,0.0376,0.0257,0.016,0.0056,0.0014,0.0046,0.003,-0.0041,-0.004,-0.0058,-0.0059,-0.006,-0.006,-0.0061,0,0.0365,0.039,0.0438,0.0472,0.0485,0.0538,0.0581,0.0608,0.066,0.0684,0.0715,0.0654,0.0631,0.0448,0.0268,0.0094,0.0061,-0.0005,-0.0026,-0.0029,-0.0047,-0.0045,-0.0044,-0.001,-0.001,-0.001,-0.001,0,0.0411,0.0423,0.0461,0.0529,0.0578,0.0646,0.0707,0.0761,0.0795,0.0834,0.0872,0.0851,0.0676,0.0515,0.0271,0.0152,0.0023,-0.001,-0.0012,0.0007,0.0014,-0.0003,-0.0002,-0.001,-0.001,-0.001,-0.001,-0.001,0.0445,0.048,0.0527,0.0594,0.0656,0.0738,0.0802,0.0873,0.0958,0.1003,0.0984,0.0949,0.0761,0.0457,0.0253,0.0029,0.0034,-0.0048,-0.0047,-0.0046,-0.0033,-0.0028,-0.0057,-0.0058,-0.0058,-0.0058,-0.0058,0,0.049,0.0526,0.059,0.0668,0.0743,0.0767,0.0876,0.0939,0.1039,0.1064,0.1083,0.0911,0.0727,0.0498,0.0174,-0.0014,-0.0027,-0.0079,-0.0052,-0.005,-0.0049,-0.0037,-0.0062,-0.0063,-0.0063,-0.0064,0,0,0.0513,0.0577,0.0607,0.0725,0.0782,0.0885,0.0949,0.1038,0.1082,0.1118,0.109,0.1034,0.0779,0.0545,0.0295,0.011,0.0068,0.0073,0.0097,0.016,0.0163,-0.0009,0.0016,0,0,0,0,0]}],[{"header":{"parameterUnit":"m.s-1","parameterCategory":2,"la1":30.2991,"la2":30.254,"lo1":-89.0895,"lo2":-89.0444,"dy":0.0017,"dx":0.0017,"nx":28,"ny":28,"refTime":"2024-12-31T09:00:00:Z","depth":"4","parameterNumber":2,"parameterNumberName":"U-component_of_CURRENTS"},"data":[0,0,0,0,0,0,0,0,0,0,0,0,0,0,0,0,0,0,0,0,0,0,0,0,0,0,0,0,0,0,0,0,0,0,0,0,0,0,0,0,0,0,0,0,0,0,0,0,0,0,0,0,0,0,0,0,0,0,0.1292,0.1293,0,0.1331,0.1331,0.1331,0.1373,0.1374,0.1375,0.1375,0.1424,0.1425,0.1426,0,0,0,0,0,0,0,0,0,0,0,0,0,0.1266,0.1266,0.1292,0.1293,0.1294,0.1331,0.1331,0.1331,0.1373,0.1374,0.1375,0.1376,0.1424,0.1425,0.1426,0,0,0,0,0,0,0,0,0,0,0,0,0,0.1287,0.1266,0.1292,0.132,0.1323,0.1331,0.1331,0.1332,0.1373,0.1374,0.1375,0.1376,0.1424,0.1425,0.1426,0.1409,0,0,0.1429,0.1429,0,0,0,0,0,0,0,0,0.1286,0.1288,0.1315,0.1318,0.1321,0.135,0.134,0.1359,0.1373,0.1352,0.1375,0.1377,0.1401,0.1404,0.1406,0.1411,0.1414,0.1429,0.1429,0.143,0.143,0,0,0,0,0,0,0,0.1284,0.1286,0.1306,0.1316,0.132,0.1335,0.1338,0.1344,0.1369,0.1354,0.1358,0.1364,0.1402,0.1405,0.1407,0.1414,0.1429,0.1429,0.143,0.143,0.1492,0.1493,0,0,0,0,0,0,0.1281,0.1285,0.1305,0.1307,0.1308,0.1334,0.1338,0.1338,0.1368,0.1375,0.1363,0.1366,0.1403,0.1406,0.1409,0.147,0.143,0.143,0.1431,0.1491,0.1493,0.1494,0,0,0,0,0,0,0.128,0.1282,0.1303,0.1299,0.1303,0.1333,0.1333,0.1338,0.137,0.1375,0.1382,0.1393,0.1404,0.1408,0.1439,0.147,0.1431,0.1432,0.149,0.1492,0.1493,0.1542,0,0,0,0,0,0,0.1279,0.1281,0.1294,0.1298,0.1303,0.1323,0.1332,0.1338,0.1371,0.1376,0.1402,0.1406,0.1405,0.1438,0.144,0.147,0.1432,0.1489,0.1491,0.1493,0.1539,0.1545,0.155,0,0,0,0,0,0.1277,0.1282,0.1294,0.1298,0.1315,0.1323,0.1327,0.1352,0.1372,0.1385,0.1408,0.1407,0.1452,0.1439,0.1441,0.1473,0.1488,0.149,0.1492,0.1536,0.1544,0.155,0,0,0,0,0,0,0.1277,0.1287,0.1301,0.1309,0.1325,0.1332,0.1351,0.1367,0.1394,0.1411,0.1417,0.1422,0.1463,0.1458,0.1443,0.1497,0.1472,0.1475,0.1504,0.1511,0.1517,0.1528,0.1433,0,0,0,0,0,0.1282,0.1293,0.1303,0.1315,0.1325,0.1345,0.1359,0.1376,0.1394,0.1409,0.1428,0.145,0.1468,0.1483,0.1496,0.152,0.1524,0.1543,0.1549,0.1554,0.1565,0.1594,0.1604,0.1502,0.1502,0.1502,0,0,0.1286,0.1295,0.1303,0.1318,0.1335,0.1353,0.1357,0.1384,0.141,0.1408,0.1459,0.1473,0.148,0.1513,0.153,0.1517,0.1584,0.1557,0.1561,0.1569,0.1598,0.1608,0.1617,0.1503,0.1503,0.1503,0,0,0.1294,0.1309,0.1322,0.1338,0.1368,0.1378,0.1392,0.1417,0.1442,0.1481,0.1491,0.1524,0.1552,0.1564,0.1571,0.1615,0.1614,0.1623,0.1661,0.169,0.1698,0.1706,0.1721,0.1729,0.1625,0.1625,0.1625,0,0.1306,0.1317,0.1329,0.1347,0.1367,0.1393,0.1414,0.1438,0.1474,0.1499,0.1508,0.1569,0.1577,0.1615,0.1634,0.1629,0.1642,0.1634,0.1698,0.1705,0.1712,0.1725,0.1734,0.1627,0.1627,0.1627,0.1626,0,0.1315,0.1339,0.135,0.1383,0.1403,0.1427,0.1457,0.1493,0.153,0.1555,0.1615,0.163,0.1667,0.1675,0.1671,0.1726,0.1717,0.1702,0.168,0.1726,0.1736,0.1745,0.1631,0.163,0.1629,0.1629,0,0,0.1304,0.1348,0.1358,0.1381,0.1427,0.144,0.1491,0.1535,0.1579,0.1625,0.1678,0.1717,0.1739,0.175,0.1753,0.1778,0.1836,0.1769,0.1769,0.1784,0.1899,0.1763,0.1759,0.1838,0.184,0.1841,0.1885,0,0.1315,0.1351,0.1373,0.142,0.1439,0.1482,0.1524,0.1573,0.1622,0.168,0.1714,0.1768,0.1763,0.1793,0.182,0.1836,0.1862,0.1825,0.1853,0.1854,0.1728,0.1766,0.1847,0.1891,0.1893,0.1895,0.1896,0,0.1314,0.134,0.1383,0.1438,0.1453,0.1492,0.1567,0.161,0.1691,0.1733,0.1796,0.1825,0.1883,0.1868,0.1928,0.1909,0.1916,0.1919,0.1921,0.1784,0.1733,0.1838,0.1911,0.191,0.1908,0.1907,0.1906,0,0.1286,0.1345,0.138,0.14,0.1468,0.1509,0.1555,0.1635,0.1682,0.1779,0.1826,0.1892,0.1937,0.1966,0.1981,0.1969,0.2032,0.2008,0.1891,0.1881,0.197,0.1961,0.2051,0.2051,0.2051,0.2051,0.2051,0,0.1269,0.1303,0.1378,0.1397,0.1453,0.1507,0.1581,0.164,0.1729,0.178,0.1859,0.1898,0.1969,0.2006,0.2009,0.1972,0.2058,0.1905,0.1886,0.1988,0.1981,0.1975,0.1966,0.2053,0.2052,0.2052,0.2052,0,0.1228,0.1278,0.1325,0.1409,0.1441,0.1486,0.1591,0.1635,0.1733,0.1803,0.1839,0.193,0.1969,0.2011,0.2054,0.1991,0.1978,0.1943,0.2054,0.204,0.1803,0.1796,0.1815,0.181,0.1807,0.1803,0.1801,0,0.1205,0.1227,0.1327,0.1359,0.1405,0.1481,0.1527,0.1631,0.167,0.1797,0.1811,0.1896,0.1937,0.1889,0.1944,0.1935,0.1909,0.189,0.184,0.18,0.1781,0.1779,0.1777,0.1795,0.1794,0.1793,0.1792,0,0.1162,0.1215,0.1255,0.132,0.1378,0.1427,0.1499,0.1517,0.1623,0.1727,0.1738,0.1752,0.1787,0.1802,0.1809,0.18,0.1895,0.1851,0.1858,0.1811,0.1776,0.176,0.1763,0.1779,0.1781,0.1782,0.1783,0,0.114,0.1156,0.1216,0.1263,0.1328,0.1342,0.1393,0.1424,0.1473,0.1599,0.1599,0.1681,0.1769,0.1732,0.1739,0.1718,0.1685,0.1622,0.164,0.1655,0.1579,0.1511,0.1421,0,0,0,0,0,0.1104,0.1108,0.1147,0.1183,0.1241,0.1275,0.1353,0.1401,0.1499,0.1465,0.1526,0.1546,0.1549,0.1594,0.1537,0.1668,0.1696,0.1594,0.1634,0.1708,0.1723,0.1646,0,0,0,0,0,0,0.1077,0.1112,0.1117,0.1103,0.1111,0.1156,0.1201,0.127,0.1252,0.1359,0.1369,0.1449,0.1478,0.1564,0.1508,0.152,0.151,0.1649,0.1644,0.1699,0.1713,0.1725,0.1651,0,0,0,0,0]},{"header":{"parameterUnit":"m.s-1","parameterCategory":2,"la1":30.2991,"la2":30.254,"lo1":-89.0895,"lo2":-89.0444,"dy":0.0017,"dx":0.0017,"nx":28,"ny":28,"refTime":"2024-12-31T09:00:00:Z","depth":"4","parameterNumber":3,"parameterNumberName":"V-component_of_CURRENTS"},"data":[0,0,0,0,0,0,0,0,0,0,0,0,0,0,0,0,0,0,0,0,0,0,0,0,0,0,0,0,0,0,0,0,0,0,0,0,0,0,0,0,0,0,0,0,0,0,0,0,0,0,0,0,0,0,0,0,0,0,0.0281,0.0281,0,0.0277,0.0277,0.0277,0.0277,0.0277,0.0277,0.0277,0.0273,0.0273,0.0273,0,0,0,0,0,0,0,0,0,0,0,0,0,0.0261,0.0262,0.0281,0.0281,0.0281,0.0277,0.0277,0.0277,0.0277,0.0277,0.0277,0.0277,0.0273,0.0273,0.0273,0,0,0,0,0,0,0,0,0,0,0,0,0,0.0265,0.0262,0.0281,0.028,0.028,0.0277,0.0277,0.0277,0.0277,0.0277,0.0277,0.0277,0.0273,0.0273,0.0272,0.0271,0,0,0.0272,0.0272,0,0,0,0,0,0,0,0,0.0265,0.0266,0.0281,0.028,0.028,0.0277,0.0268,0.0274,0.0277,0.0278,0.0277,0.0277,0.0274,0.0274,0.0273,0.027,0.027,0.0272,0.0272,0.0272,0.0272,0,0,0,0,0,0,0,0.0265,0.0266,0.028,0.028,0.028,0.027,0.0271,0.0269,0.0276,0.0278,0.0278,0.0277,0.0274,0.0273,0.0273,0.027,0.0272,0.0272,0.0272,0.0272,0.0275,0.0275,0,0,0,0,0,0,0.0266,0.0266,0.028,0.028,0.0272,0.027,0.0271,0.0278,0.0276,0.0276,0.0277,0.0277,0.0274,0.0273,0.0273,0.0283,0.0272,0.0272,0.0271,0.0275,0.0275,0.0275,0,0,0,0,0,0,0.0266,0.0268,0.028,0.0272,0.0273,0.0271,0.0278,0.0278,0.0281,0.0275,0.0275,0.028,0.0274,0.0273,0.0279,0.0282,0.0271,0.0271,0.0274,0.0275,0.0275,0.0295,0,0,0,0,0,0,0.0265,0.0268,0.0275,0.0272,0.0273,0.0283,0.0278,0.0278,0.028,0.028,0.0278,0.0277,0.0274,0.028,0.0279,0.0282,0.0271,0.0274,0.0275,0.0275,0.0294,0.0296,0.0298,0,0,0,0,0,0.0265,0.0275,0.0276,0.0277,0.0283,0.0283,0.0283,0.0281,0.028,0.0284,0.0285,0.0278,0.0281,0.028,0.0279,0.0282,0.0274,0.0274,0.0275,0.0294,0.0296,0.0298,0,0,0,0,0,0,0.027,0.0276,0.0276,0.0289,0.0287,0.0283,0.0287,0.0284,0.0287,0.0289,0.0283,0.0283,0.0289,0.0283,0.0281,0.0284,0.0275,0.0276,0.029,0.0292,0.0293,0.0296,0.0271,0,0,0,0,0,0.0275,0.0285,0.0285,0.0294,0.0295,0.0291,0.0291,0.029,0.029,0.0292,0.029,0.0288,0.0289,0.0289,0.0288,0.0291,0.0273,0.0291,0.0293,0.0294,0.0296,0.0273,0.0273,0.0277,0.0277,0.0277,0,0,0.0279,0.0283,0.0289,0.0296,0.0295,0.0302,0.0292,0.0295,0.03,0.0291,0.03,0.0295,0.0292,0.0296,0.0297,0.0292,0.0282,0.0295,0.0296,0.0297,0.0273,0.0273,0.0272,0.0277,0.0277,0.0277,0,0,0.0291,0.0297,0.0309,0.031,0.0311,0.031,0.0312,0.031,0.031,0.0316,0.0311,0.031,0.0311,0.0308,0.0306,0.0316,0.0293,0.0315,0.0325,0.0303,0.0303,0.0302,0.0272,0.0268,0.0315,0.0315,0.0315,0,0.0295,0.0312,0.0311,0.0319,0.0325,0.0316,0.0328,0.0326,0.0326,0.0329,0.0322,0.0321,0.0316,0.032,0.0323,0.032,0.0301,0.0318,0.0305,0.0304,0.0303,0.0272,0.0268,0.0316,0.0316,0.0316,0.0316,0,0.0313,0.0327,0.0333,0.0345,0.0349,0.0357,0.0355,0.0357,0.0355,0.0354,0.0356,0.0344,0.0344,0.0339,0.0335,0.0327,0.0314,0.0311,0.03,0.0304,0.0271,0.0266,0.0317,0.0317,0.0317,0.0316,0,0,0.0324,0.0343,0.0346,0.0359,0.0365,0.0372,0.0379,0.0387,0.0398,0.0385,0.0392,0.0383,0.0374,0.0371,0.0359,0.0338,0.031,0.0322,0.0321,0.0292,0.0253,0.0239,0.0232,0.0304,0.0303,0.0303,0.0231,0,0.0339,0.0365,0.037,0.0396,0.0411,0.0407,0.0419,0.0423,0.0423,0.0426,0.0404,0.0409,0.0387,0.0388,0.0362,0.033,0.0299,0.0329,0.0254,0.0252,0.0238,0.0227,0.0301,0.0227,0.0226,0.0225,0.0225,0,0.0357,0.0374,0.0403,0.043,0.0437,0.045,0.0471,0.0481,0.0479,0.0478,0.0467,0.045,0.0423,0.0401,0.0333,0.0353,0.0303,0.0269,0.0265,0.0242,0.0229,0.0224,0.0216,0.0217,0.0217,0.0218,0.0218,0,0.0369,0.0398,0.0426,0.0433,0.0459,0.0473,0.0489,0.0499,0.0519,0.0512,0.0519,0.0481,0.0467,0.04,0.0327,0.0329,0.0242,0.0237,0.0171,0.0169,0.0195,0.0197,0.0177,0.0177,0.0177,0.0178,0.0178,0,0.0385,0.0408,0.0436,0.045,0.049,0.0498,0.054,0.0546,0.0562,0.0587,0.0551,0.055,0.0466,0.0408,0.0331,0.0236,0.0243,0.0167,0.015,0.0204,0.0208,0.0191,0.0193,0.0175,0.0175,0.0176,0.0176,0,0.0394,0.041,0.0447,0.0482,0.0498,0.0527,0.058,0.0609,0.0617,0.0643,0.0642,0.0601,0.0526,0.043,0.0321,0.025,0.0157,0.0119,0.0178,0.0166,0.0094,0.0099,0.0036,0.0035,0.0034,0.0034,0.0033,0,0.04,0.042,0.0472,0.0501,0.052,0.0569,0.0606,0.0635,0.0665,0.0674,0.0683,0.0623,0.0579,0.0413,0.0311,0.0153,0.0131,0.0073,0.0084,0.009,0.008,0.0086,0.0091,0.0032,0.0031,0.0031,0.0031,0,0.0413,0.0435,0.0466,0.0525,0.0571,0.0626,0.0676,0.0699,0.0729,0.0736,0.0711,0.0627,0.0538,0.0412,0.0288,0.0177,0.0107,0.0062,0.0064,0.0074,0.0084,0.0075,0.0082,0.0028,0.0028,0.0028,0.0028,0,0.0426,0.045,0.0494,0.0547,0.0606,0.066,0.0689,0.0718,0.0746,0.0745,0.0735,0.0641,0.059,0.0424,0.0313,0.0199,0.0169,0.0124,0.0122,0.0124,0.0172,0.0198,0.0157,0,0,0,0,0,0.0435,0.0463,0.0512,0.057,0.063,0.0668,0.0725,0.0749,0.0771,0.0756,0.0745,0.0661,0.0497,0.0434,0.0317,0.029,0.0147,0.0148,0.0094,0.0009,0.0013,0.0053,0,0,0,0,0,0,0.0441,0.0486,0.0509,0.058,0.0623,0.0694,0.0733,0.0751,0.0741,0.0742,0.0662,0.0621,0.0469,0.0564,0.0313,0.028,0.0225,0.0076,0.0073,0.0007,0.0011,0.0014,0.0056,0,0,0,0,0]}]]